Location: Agenbach
(47.2667°N, 11.4500°E)
Time: 03:22:13
(UTC+00:00)

UNK - Pass Details

Date: 07 June 2020
Orbit: 667 x 686 km, 98.1° (Epoch: 09 July)

Event Time Altitude Azimuth Distance (km) Brightness Sun altitude
Exits shadow 01:11:41 22° 185° (S) 1,438 4.9 -15.0°
Maximum altitude 01:14:29 59° 259° (WSW) 773 3.8 -14.8°
Drops below altitude 10° 01:19:02 10° 339° (NNW) 2,105 6.8 -14.4°
Sets 01:21:18 0° 344° (NNW) 3,022 7.8 -14.2°
